Date String (YYYY-MM-DD hh:mm:ss) UTC,Instrument flags,Ambient pressure (hPa),Sample flow (lpm),Bypass flow (lpm),Sample temperature (°C),Ambient temperature (°C),ASC tube jacket temperature (°C),LED temperature (°C),Box temperature (°C),Sample RH (%),Span deviation,Mass concentration (μg/m³),Mass concentration (μg/m³),Mass concentration (μg/m³)
DateTimeUTC,F1_M11,P_M11,Q1_M11,Q2_M11,T1_M11,T2_M11,T3_M11,T4_M11,T5_M11,U1_M11,ZSPAN_M11,X0_M11,X2_M11,X1_M11
2022-05-25 04:00:00,,0827.0,5.00,0.00,27.5,26.0,00.0,36.5,29.2,19.7,0000.0,0006.12,0004.06,0003.78
2022-05-25 04:01:00,,0826.9,5.00,0.00,27.4,26.0,00.0,36.5,29.2,19.6,0000.0,0006.32,0004.03,0003.73
2022-05-25 04:02:00,,0826.9,5.01,0.00,27.4,26.0,00.0,36.5,29.2,19.6,0000.0,0007.26,0003.96,0003.67
2022-05-25 04:03:00,,0827.0,4.99,0.00,27.4,26.0,00.0,36.4,29.2,19.6,0000.0,0007.11,0003.91,0003.62
2022-05-25 04:04:00,,0826.9,4.99,0.00,27.4,26.0,00.0,36.4,29.2,19.6,0000.0,0007.12,0003.90,0003.59
2022-05-25 04:05:00,,0827.0,5.00,0.00,27.4,26.0,00.0,36.4,29.2,19.4,0000.0,0007.15,0003.88,0003.57
2022-05-25 04:06:00,,0826.9,5.00,0.00,27.4,26.0,00.0,36.4,29.2,19.4,0000.0,0007.12,0003.88,0003.56
2022-05-25 04:07:00,,0827.0,5.01,0.00,27.4,26.0,00.0,36.4,29.2,19.4,0000.0,0007.50,0003.88,0003.54
2022-05-25 04:08:00,,0826.9,5.00,0.00,27.4,26.0,00.0,36.4,29.2,19.3,0000.0,0007.74,0003.85,0003.52
2022-05-25 04:09:00,,0826.9,5.01,0.00,27.4,25.9,00.0,36.4,29.2,19.4,0000.0,0007.85,0003.86,0003.52
2022-05-25 04:10:00,,0826.9,4.99,0.00,27.3,25.9,00.0,36.4,29.2,19.6,0000.0,0007.83,0003.83,0003.52
2022-05-25 04:11:00,,0827.0,5.00,0.00,27.3,25.9,00.0,36.4,29.1,19.7,0000.0,0007.79,0003.83,0003.50
2022-05-25 04:12:00,,0827.0,5.00,0.00,27.3,25.9,00.0,36.3,29.1,19.8,0000.0,0007.66,0003.81,0003.49
2022-05-25 04:13:00,,0827.0,5.01,0.00,27.3,25.9,00.0,36.3,29.1,19.7,0000.0,0007.16,0003.82,0003.49
2022-05-25 04:14:00,,0827.0,4.99,0.00,27.3,25.9,00.0,36.3,29.1,19.7,0000.0,0007.14,0003.80,0003.48
2022-05-25 04:15:00,,0827.0,4.99,0.00,27.3,25.9,00.0,36.3,29.1,19.7,0000.0,0007.15,0003.79,0003.46
2022-05-25 04:16:00,,0827.0,4.99,0.00,27.3,25.9,00.0,36.3,29.1,19.5,0000.0,0007.08,0003.77,0003.44
2022-05-25 04:17:00,,0827.0,5.00,0.00,27.3,25.9,00.0,36.3,29.1,19.5,0000.0,0007.01,0003.75,0003.42
2022-05-25 04:18:00,,0827.0,5.00,0.00,27.3,25.9,00.0,36.3,29.1,19.4,0000.0,0006.34,0003.69,0003.40
2022-05-25 04:19:00,,0827.0,5.01,0.00,27.3,25.9,00.0,36.3,29.1,19.3,0000.0,0005.74,0003.64,0003.35
2022-05-25 04:20:00,,0827.0,5.00,0.00,27.3,25.9,00.0,36.3,29.1,19.3,0000.0,0005.86,0003.59,0003.31
2022-05-25 04:21:00,,0827.0,5.01,0.00,27.2,25.9,00.0,36.3,29.0,19.2,0000.0,0005.80,0003.57,0003.28
2022-05-25 04:22:00,,0827.1,5.00,0.00,27.2,25.8,00.0,36.2,29.0,19.2,0000.0,0005.76,0003.53,0003.25
2022-05-25 04:23:00,,0827.0,5.00,0.00,27.2,25.8,00.0,36.2,29.0,19.3,0000.0,0005.61,0003.48,0003.21
2022-05-25 04:24:00,,0827.0,5.00,0.00,27.2,25.8,00.0,36.2,29.0,19.3,0000.0,0005.34,0003.44,0003.17
2022-05-25 04:25:00,,0827.0,4.99,0.00,27.2,25.8,00.0,36.2,29.0,19.3,0000.0,0005.26,0003.40,0003.13
2022-05-25 04:26:00,,0827.0,5.00,0.00,27.2,25.8,00.0,36.2,29.0,19.3,0000.0,0005.15,0003.36,0003.08
2022-05-25 04:27:00,,0827.1,5.00,0.00,27.2,25.8,00.0,36.2,29.0,19.5,0000.0,0005.10,0003.33,0003.00
2022-05-25 04:28:00,,0827.0,5.00,0.00,27.2,25.8,00.0,36.2,29.0,19.6,0000.0,0004.98,0003.29,0002.94
2022-05-25 04:29:00,,0827.0,4.99,0.00,27.2,25.8,00.0,36.2,29.0,19.4,0000.0,0005.03,0003.28,0002.88
2022-05-25 04:30:00,,0827.0,5.01,0.00,27.2,25.8,00.0,36.2,29.0,19.4,0000.0,0004.97,0003.26,0002.86
2022-05-25 04:31:00,,0827.1,5.01,0.00,27.1,25.8,00.0,36.2,29.0,19.3,0000.0,0004.64,0003.24,0002.83
2022-05-25 04:32:00,,0827.1,5.00,0.00,27.1,25.8,00.0,36.1,28.9,19.3,0000.0,0004.40,0003.22,0002.79
2022-05-25 04:33:00,,0827.1,5.00,0.00,27.1,25.8,00.0,36.1,29.0,19.4,0000.0,0004.45,0003.22,0002.76
2022-05-25 04:34:00,,0827.1,4.99,0.00,27.1,25.8,00.0,36.1,29.0,19.4,0000.0,0004.99,0003.20,0002.75
2022-05-25 04:35:00,,0827.1,5.00,0.00,27.1,25.8,00.0,36.1,28.9,19.5,0000.0,0005.23,0003.20,0002.74
2022-05-25 04:36:00,,0827.1,5.00,0.00,27.1,25.8,00.0,36.1,28.9,19.6,0000.0,0005.20,0003.18,0002.72
2022-05-25 04:37:00,,0827.1,4.99,0.00,27.1,25.8,00.0,36.1,28.9,19.6,0000.0,0005.23,0003.17,0002.69
2022-05-25 04:38:00,,0827.1,5.00,0.00,27.1,25.7,00.0,36.1,28.9,19.3,0000.0,0005.19,0003.13,0002.68
2022-05-25 04:39:00,,0827.1,5.00,0.00,27.1,25.7,00.0,36.1,28.9,19.3,0000.0,0005.24,0003.13,0002.66
2022-05-25 04:40:00,,0827.1,5.00,0.00,27.1,25.7,00.0,36.1,28.9,19.4,0000.0,0005.10,0003.09,0002.64
2022-05-25 04:41:00,,0827.1,5.01,0.00,27.1,25.7,00.0,36.1,28.9,19.3,0000.0,0005.00,0003.05,0002.62
2022-05-25 04:42:00,,0827.1,5.00,0.00,27.1,25.7,00.0,36.1,28.9,19.2,0000.0,0004.88,0002.99,0002.59
2022-05-25 04:43:00,,0827.1,5.00,0.00,27.0,25.7,00.0,36.0,28.9,19.3,0000.0,0004.79,0002.95,0002.56
2022-05-25 04:44:00,,0827.1,4.99,0.00,27.0,25.7,00.0,36.0,28.9,19.4,0000.0,0004.68,0002.90,0002.53
2022-05-25 04:45:00,,0827.1,5.00,0.00,27.0,25.7,00.0,36.0,28.9,19.5,0000.0,0004.07,0002.86,0002.50
2022-05-25 04:46:00,,0827.0,5.00,0.00,27.0,25.7,00.0,36.0,28.8,19.6,0000.0,0003.70,0002.81,0002.47
2022-05-25 04:47:00,,0827.0,5.00,0.00,27.0,25.7,00.0,36.0,28.8,19.8,0000.0,0003.60,0002.75,0002.44
2022-05-25 04:48:00,,0827.0,5.00,0.00,27.0,25.7,00.0,36.0,28.8,20.0,0000.0,0003.59,0002.72,0002.42
2022-05-25 04:49:00,,0827.0,5.00,0.00,27.0,25.6,00.0,36.0,28.8,19.9,0000.0,0003.49,0002.71,0002.40
2022-05-25 04:50:00,,0827.0,5.00,0.00,27.0,25.6,00.0,36.0,28.8,19.7,0000.0,0003.50,0002.70,0002.40
2022-05-25 04:51:00,,0827.0,5.01,0.00,27.0,25.6,00.0,36.0,28.8,19.7,0000.0,0003.54,0002.71,0002.40
2022-05-25 04:52:00,,0827.1,5.00,0.00,27.0,25.6,00.0,36.0,28.8,19.7,0000.0,0003.53,0002.72,0002.42
2022-05-25 04:53:00,,0827.0,5.00,0.00,27.0,25.6,00.0,36.0,28.8,19.7,0000.0,0003.63,0002.78,0002.47
2022-05-25 04:54:00,,0827.0,4.99,0.00,27.0,25.6,00.0,36.0,28.8,19.7,0000.0,0003.70,0002.82,0002.50
2022-05-25 04:55:00,,0826.9,5.01,0.00,27.0,25.6,00.0,36.0,28.8,19.4,0000.0,0003.72,0002.84,0002.54
2022-05-25 04:56:00,,0826.9,5.00,0.00,26.9,25.6,00.0,35.9,28.8,19.3,0000.0,0003.71,0002.86,0002.57
2022-05-25 04:57:00,,0826.9,5.00,0.00,26.9,25.6,00.0,35.9,28.7,19.3,0000.0,0003.72,0002.90,0002.60
2022-05-25 04:58:00,,0826.9,5.00,0.00,26.9,25.6,00.0,35.9,28.7,19.1,0000.0,0003.85,0002.98,0002.64
2022-05-25 04:59:00,,0826.8,5.00,0.00,26.9,25.6,00.0,35.9,28.7,19.1,0000.0,0003.83,0003.04,0002.68
